GW4350 Weather Reports


time (UTC)temp
C
wind
direction
speed
KPH
gust
KPH
rain 1hr
cm
rain 24hr
cm
rain mn
cm
humidity
%
barometer
mb
20260510205114 22 161 1.6 1.6 0.00 0.00 0.00 60 1001.2
20260510204610 22 160 1.6 1.6 0.00 0.00 0.00 60 1001.1
20260510204107 22 142 0.0 0.0 0.00 0.00 0.00 61 1001.3
20260510203559 22 319 6.4 9.7 0.00 0.00 0.00 59 1001.3
20260510203056 23 323 8.0 11.3 0.00 0.00 0.00 58 1001.2
20260510202555 23 293 4.8 4.8 0.00 0.00 0.00 58 1001.3
20260510202051 23 160 1.6 1.6 0.00 0.00 0.00 60 1001.3
20260510201548 23 305 3.2 4.8 0.00 0.00 0.00 59 1001.0
20260510201045 23 239 4.8 4.8 0.00 0.00 0.00 59 1001.3
20260510200541 22 3 1.6 3.2 0.00 0.00 0.00 60 1001.4
20260510200039 23 136 1.6 1.6 0.00 0.00 0.00 60 1001.2
20260510195536 23 141 4.8 11.3 0.00 0.00 0.00 58 1001.2
20260510195032 23 316 4.8 4.8 0.00 0.00 0.00 58 1001.3
20260510194527 23 65 1.6 3.2 0.00 0.00 0.00 60 1001.5
20260510194024 23 99 3.2 3.2 0.00 0.00 0.00 59 1001.5
20260510193519 24 83 4.8 8.0 0.00 0.00 0.00 56 1001.5
20260510193015 24 330 6.4 8.0 0.00 0.00 0.00 57 1001.5
20260510192510 25 169 1.6 3.2 0.00 0.00 0.00 56 1001.5
20260510192006 24 190 3.2 3.2 0.00 0.00 0.00 56 1001.3
20260510191502 23 181 1.6 1.6 0.00 0.00 0.00 56 1001.3
20260510190959 24 106 1.6 1.6 0.00 0.00 0.00 57 1001.6
20260510190456 24 163 1.6 1.6 0.00 0.00 0.00 56 1001.6
20260510185953 23 105 1.6 1.6 0.00 0.00 0.00 56 1001.2
20260510185450 24 154 0.0 0.0 0.00 0.00 0.00 56 1001.4
20260510184948 25 343 4.8 4.8 0.00 0.00 0.00 53 1001.4
20260510184445 25 224 3.2 3.2 0.00 0.00 0.00 52 1001.4
20260510183944 25 148 1.6 3.2 0.00 0.00 0.00 53 1001.4
20260510183441 25 213 8.0 9.7 0.00 0.00 0.00 51 1001.5
20260510182936 24 154 1.6 3.2 0.00 0.00 0.00 52 1001.6
20260510182432 24 168 3.2 4.8 0.00 0.00 0.00 53 1001.6
20260510181928 25 47 4.8 8.0 0.00 0.00 0.00 52 1001.6
20260510181426 25 235 4.8 4.8 0.00 0.00 0.00 51 1001.7
20260510180922 23 199 6.4 8.0 0.00 0.00 0.00 51 1001.8
20260510180419 25 230 11.3 12.9 0.00 0.00 0.00 50 1001.7
20260510175916 25 176 16.1 20.9 0.00 0.00 0.00 49 1001.6
20260510175412 25 111 4.8 4.8 0.00 0.00 0.00 52 1001.8
20260510174908 25 61 6.4 8.0 0.00 0.00 0.00 52 1001.6
20260510174406 25 0 6.4 8.0 0.00 0.00 0.00 52 1001.7
20260510173902 24 170 1.6 1.6 0.00 0.00 0.00 54 1001.5
20260510173358 24 60 4.8 4.8 0.00 0.00 0.00 54 1001.6
20260510172854 25 180 3.2 3.2 0.00 0.00 0.00 52 1001.6
20260510172350 23 357 4.8 8.0 0.00 0.00 0.00 55 1001.5
20260510171841 24 225 4.8 4.8 0.00 0.00 0.00 55 1001.5
20260510171339 25 180 0.0 0.0 0.00 0.00 0.00 55 1001.6
20260510170836 25 215 4.8 4.8 0.00 0.00 0.00 54 1001.4
20260510170332 24 160 0.0 1.6 0.00 0.00 0.00 55 1001.4
20260510165827 25 226 4.8 8.0 0.00 0.00 0.00 52 1001.8
20260510165324 23 208 1.6 1.6 0.00 0.00 0.00 55 1001.6
20260510164821 23 177 4.8 8.0 0.00 0.00 0.00 57 1001.5
20260510164319 23 216 6.4 11.3 0.00 0.00 0.00 57 1001.4
20260510163818 23 187 1.6 1.6 0.00 0.00 0.00 59 1001.6
20260510163315 23 191 3.2 3.2 0.00 0.00 0.00 56 1001.7
20260510162814 23 181 4.8 8.0 0.00 0.00 0.00 56 1001.6
20260510162312 23 336 8.0 11.3 0.00 0.00 0.00 57 1001.7
20260510161807 23 175 1.6 3.2 0.00 0.00 0.00 57 1001.5
20260510161303 23 204 3.2 4.8 0.00 0.00 0.00 57 1001.7
20260510160801 23 319 1.6 3.2 0.00 0.00 0.00 57 1001.4
20260510160257 23 176 8.0 11.3 0.00 0.00 0.00 55 1001.6
20260510155757 23 295 4.8 4.8 0.00 0.00 0.00 56 1001.6
20260510155253 23 208 3.2 3.2 0.00 0.00 0.00 59 1001.4
20260510154749 23 217 3.2 4.8 0.00 0.00 0.00 58 1001.5
20260510154245 23 149 0.0 0.0 0.00 0.00 0.00 61 1001.7
20260510153740 23 166 3.2 3.2 0.00 0.00 0.00 61 1001.5
20260510153236 22 326 3.2 4.8 0.00 0.00 0.00 62 1001.6
20260510152733 22 165 1.6 1.6 0.00 0.00 0.00 63 1001.5
20260510152229 22 172 4.8 4.8 0.00 0.00 0.00 67 1001.4
20260510151726 22 163 1.6 1.6 0.00 0.00 0.00 66 1001.8
20260510151225 21 116 1.6 1.6 0.00 0.00 0.00 67 1001.7
20260510150720 21 157 0.0 1.6 0.00 0.00 0.00 69 1001.6
20260510150215 21 177 1.6 1.6 0.00 0.00 0.00 68 1001.7
20260510145712 21 151 0.0 1.6 0.00 0.00 0.00 69 1001.5
20260510145208 21 213 3.2 4.8 0.00 0.00 0.00 70 1001.7
20260510144705 21 155 0.0 0.0 0.00 0.00 0.00 69 1001.6
20260510144201 20 150 0.0 1.6 0.00 0.00 0.00 71 1001.9
20260510143656 20 156 3.2 3.2 0.00 0.00 0.00 73 1001.9
20260510143153 20 214 4.8 4.8 0.00 0.00 0.00 72 1001.9
20260510142649 20 199 6.4 9.7 0.00 0.00 0.00 72 1001.8
20260510142146 20 170 1.6 1.6 0.00 0.00 0.00 73 1001.6
20260510141643 20 145 0.0 1.6 0.00 0.00 0.00 76 1001.8
20260510141142 19 162 1.6 3.2 0.00 0.00 0.00 77 1001.8
20260510140637 19 151 1.6 3.2 0.00 0.00 0.00 77 1001.6
20260510140137 18 146 3.2 3.2 0.00 0.00 0.00 79 1001.7
20260510135632 18 160 3.2 3.2 0.00 0.00 0.00 81 1001.7
20260510135129 18 168 1.6 1.6 0.00 0.00 0.00 82 1001.8
20260510134626 17 155 0.0 0.0 0.00 0.00 0.00 83 1001.7
20260510134123 17 164 1.6 3.2 0.00 0.00 0.00 83 1001.4
20260510133619 17 170 0.0 1.6 0.00 0.00 0.00 85 1001.6
20260510133114 16 150 0.0 0.0 0.00 0.00 0.00 88 1001.6
20260510132612 16 154 0.0 1.6 0.00 0.00 0.00 90 1001.6
20260510132109 15 159 1.6 1.6 0.00 0.00 0.00 93 1001.6
20260510131606 15 146 0.0 0.0 0.00 0.00 0.00 98 1001.6
20260510131103 15 138 0.0 0.0 0.00 0.00 0.00 99 1001.7
20260510130559 14 150 0.0 0.0 0.00 0.00 0.00 99 1001.6
20260510130057 13 154 0.0 0.0 0.00 0.00 0.00 99 1001.7
20260510125553 13 159 0.0 1.6 0.00 0.00 0.00 99 1001.9
20260510125049 12 147 1.6 1.6 0.00 0.00 0.00 99 1001.8
20260510124546 12 185 1.6 3.2 0.00 0.00 0.00 99 1001.8
20260510124043 12 134 0.0 0.0 0.00 0.00 0.00 99 1001.8
20260510123538 12 135 0.0 0.0 0.00 0.00 0.00 99 1001.6
20260510123035 12 139 0.0 0.0 0.00 0.00 0.00 99 1001.5
20260510122530 11 149 0.0 0.0 0.00 0.00 0.00 99 1001.6
20260510122027 12 143 0.0 0.0 0.00 0.00 0.00 99 1001.4
20260510121524 11 156 0.0 0.0 0.00 0.00 0.00 99 1001.2
20260510121022 11 156 0.0 0.0 0.00 0.00 0.00 99 1001.1
20260510120519 11 156 0.0 0.0 0.00 0.00 0.00 99 1001.1
20260510120015 11 156 0.0 0.0 0.00 0.00 0.00 99 1001.2
20260510115512 11 156 0.0 0.0 0.00 0.00 0.00 99 1001.1
20260510115008 11 156 0.0 0.0 0.00 0.00 0.00 99 1001.0
20260510114504 11 156 0.0 0.0 0.00 0.00 0.00 99 1000.6
20260510114000 11 156 0.0 0.0 0.00 0.00 0.00 99 1000.7
20260510113455 11 156 0.0 0.0 0.00 0.00 0.00 99 1001.0
20260510112953 11 143 0.0 0.0 0.00 0.00 0.00 99 1001.1
20260510112450 11 148 0.0 0.0 0.00 0.00 0.00 99 1001.0
20260510111947 11 170 0.0 0.0 0.00 0.00 0.00 99 1000.7
20260510111443 11 190 1.6 1.6 0.00 0.00 0.00 99 1000.7
20260510110938 11 143 0.0 0.0 0.00 0.00 0.00 99 1000.3
20260510110435 11 143 0.0 0.0 0.00 0.00 0.00 99 1000.6
20260510105931 11 143 0.0 0.0 0.00 0.00 0.00 99 1001.0
20260510105426 10 158 0.0 0.0 0.00 0.00 0.00 99 1000.6
20260510104922 10 145 0.0 0.0 0.00 0.00 0.00 99 1000.9
20260510104419 10 144 0.0 0.0 0.00 0.00 0.00 99 1000.3
20260510103915 10 138 0.0 0.0 0.00 0.00 0.00 99 1000.5
20260510103408 10 145 0.0 0.0 0.00 0.00 0.00 99 1000.1
20260510102903 10 144 0.0 0.0 0.00 0.00 0.00 99 1000.2
20260510102358 10 145 0.0 0.0 0.00 0.00 0.00 99 999.9
20260510101856 10 160 0.0 0.0 0.00 0.00 0.00 99 1000.1
20260510101354 10 136 0.0 0.0 0.00 0.00 0.00 99 999.9
20260510100851 10 143 0.0 0.0 0.00 0.00 0.00 99 1000.1
20260510100348 10 177 0.0 0.0 0.00 0.00 0.00 99 1000.3
20260510095844 10 148 0.0 0.0 0.00 0.00 0.00 99 999.9
20260510095338 10 153 0.0 0.0 0.00 0.00 0.00 99 1000.0
20260510094838 10 153 0.0 0.0 0.00 0.00 0.00 99 1000.2
20260510094333 10 147 0.0 0.0 0.00 0.00 0.00 99 1000.1
20260510093830 10 146 0.0 0.0 0.00 0.00 0.00 99 999.9
20260510093326 10 150 0.0 0.0 0.00 0.00 0.00 99 999.8
20260510092822 10 146 0.0 0.0 0.00 0.00 0.00 99 999.8
20260510092318 10 130 0.0 0.0 0.00 0.00 0.00 99 999.9
20260510091814 10 143 0.0 0.0 0.00 0.00 0.00 99 999.9
20260510091312 10 161 0.0 0.0 0.00 0.00 0.00 99 1000.0
20260510090808 10 212 0.0 0.0 0.00 0.00 0.00 99 999.9
20260510090305 10 150 0.0 0.0 0.00 0.00 0.00 99 1000.0
20260510085801 10 142 0.0 0.0 0.00 0.00 0.00 99 1000.1
20260510085301 10 150 0.0 0.0 0.00 0.00 0.00 99 1000.0
20260510084757 10 146 0.0 0.0 0.00 0.00 0.00 99 1000.1
20260510084254 10 150 0.0 1.6 0.00 0.00 0.00 99 999.9
20260510083750 10 170 0.0 0.0 0.00 0.00 0.00 99 1000.0
20260510083248 10 134 0.0 0.0 0.00 0.00 0.00 99 999.7
20260510082743 10 138 0.0 0.0 0.00 0.00 0.00 99 1000.1
20260510082240 10 259 3.2 3.2 0.00 0.00 0.00 99 999.9
20260510081739 10 143 0.0 0.0 0.00 0.00 0.00 99 999.7
20260510081235 10 143 0.0 0.0 0.00 0.00 0.00 99 999.5
20260510080730 10 146 0.0 0.0 0.00 0.00 0.00 99 999.4
20260510080226 10 150 0.0 0.0 0.00 0.00 0.00 99 999.3
20260510075723 10 139 0.0 0.0 0.00 0.00 0.00 99 999.2
20260510075221 10 144 0.0 0.0 0.00 0.00 0.00 99 999.2
20260510074718 10 151 0.0 0.0 0.00 0.00 0.00 99 999.4
20260510074214 10 146 0.0 0.0 0.00 0.00 0.00 99 999.3
20260510073711 10 137 0.0 0.0 0.00 0.00 0.00 99 999.5
20260510073206 10 150 0.0 0.0 0.00 0.00 0.00 99 999.2
20260510072703 9 144 0.0 0.0 0.00 0.00 0.00 99 999.2
20260510072159 9 139 0.0 0.0 0.00 0.00 0.00 99 999.2
20260510071656 9 145 0.0 0.0 0.00 0.00 0.00 99 999.1
20260510071153 8 106 0.0 0.0 0.00 0.00 0.00 99 999.3
20260510070650 8 126 0.0 0.0 0.00 0.00 0.00 99 998.9
20260510070148 8 146 0.0 0.0 0.00 0.00 0.00 99 998.9
20260510065643 8 100 0.0 0.0 0.00 0.00 0.00 99 999.1
20260510065139 8 99 0.0 0.0 0.00 0.00 0.00 99 998.9
20260510064636 8 129 0.0 0.0 0.00 0.00 0.00 99 998.7
20260510064133 8 149 0.0 0.0 0.00 0.00 0.00 99 998.4
20260510063630 8 149 0.0 0.0 0.00 0.00 0.00 99 998.7
20260510063126 8 149 0.0 0.0 0.00 0.00 0.00 99 998.6
20260510062622 8 149 0.0 0.0 0.00 0.00 0.00 99 998.7
20260510062118 8 149 0.0 0.0 0.00 0.00 0.00 99 998.9
20260510061614 8 149 0.0 0.0 0.00 0.00 0.00 99 998.6
20260510061112 8 148 0.0 0.0 0.00 0.00 0.00 99 998.8
20260510060608 9 147 0.0 0.0 0.00 0.00 0.00 99 998.6
20260510060104 9 145 0.0 0.0 0.00 0.00 0.00 99 998.9
20260510055600 9 145 0.0 0.0 0.00 0.00 0.00 99 998.7
20260510055059 9 144 0.0 0.0 0.00 0.00 0.00 99 998.8
20260510054554 9 145 0.0 0.0 0.00 0.00 0.00 99 999.0
20260510054049 9 132 0.0 0.0 0.00 0.00 0.00 99 999.1
20260510053544 9 132 0.0 0.0 0.00 0.00 0.00 99 999.4
20260510053041 8 145 0.0 0.0 0.00 0.00 0.00 99 999.2
20260510052537 9 145 0.0 0.0 0.00 0.00 0.00 99 999.3
20260510052033 9 145 0.0 0.0 0.00 0.00 0.00 99 999.4
20260510051528 9 145 0.0 0.0 0.00 0.00 0.00 99 999.3
20260510051026 9 145 0.0 0.0 0.00 0.00 0.00 99 999.3
20260510050523 9 145 0.0 0.0 0.00 0.00 0.00 99 999.3
20260510050020 9 145 0.0 0.0 0.00 0.00 0.00 99 999.3
20260510045517 9 145 0.0 0.0 0.00 0.00 0.00 99 999.0
20260510045013 9 145 0.0 0.0 0.00 0.00 0.00 99 999.4
20260510044510 10 144 0.0 0.0 0.00 0.00 0.00 99 999.4
20260510044007 9 147 0.0 0.0 0.00 0.00 0.00 99 999.3
20260510043503 9 148 0.0 0.0 0.00 0.00 0.00 99 999.4
20260510043002 10 149 0.0 0.0 0.00 0.00 0.00 99 999.4
20260510042457 10 149 0.0 0.0 0.00 0.00 0.00 99 999.3
20260510041952 10 146 0.0 0.0 0.00 0.00 0.00 99 999.4
20260510041450 10 145 0.0 0.0 0.00 0.00 0.00 99 999.4
20260510040948 10 146 0.0 0.0 0.00 0.00 0.00 99 999.5
20260510040444 10 145 0.0 0.0 0.00 0.00 0.00 99 999.5
20260510035940 10 145 0.0 0.0 0.00 0.18 0.18 99 999.4
20260510035436 10 145 0.0 0.0 0.00 0.18 0.18 99 999.7
20260510034931 10 145 0.0 0.0 0.00 0.18 0.18 99 999.4
20260510034430 10 146 0.0 0.0 0.00 0.18 0.18 99 999.4
20260510033926 10 147 0.0 0.0 0.00 0.18 0.18 99 999.4
20260510033422 10 148 0.0 0.0 0.00 0.18 0.18 99 999.3
20260510032919 10 149 0.0 0.0 0.00 0.18 0.18 99 999.4
20260510032416 10 149 0.0 0.0 0.00 0.18 0.18 99 999.2
20260510031911 10 149 0.0 0.0 0.00 0.18 0.18 99 999.1
20260510031406 10 145 0.0 0.0 0.00 0.18 0.18 99 999.1
20260510030901 10 145 0.0 0.0 0.00 0.18 0.18 99 999.2
20260510030358 10 145 0.0 0.0 0.00 0.18 0.18 99 999.0
20260510025856 10 144 0.0 0.0 0.00 0.18 0.18 99 999.1
20260510025353 10 133 0.0 0.0 0.00 0.18 0.18 99 999.0
20260510024850 10 110 0.0 0.0 0.00 0.18 0.18 99 999.0
20260510024346 10 147 0.0 0.0 0.00 0.18 0.18 99 999.0
20260510023842 10 147 0.0 0.0 0.00 0.18 0.18 99 999.0
20260510023339 10 149 0.0 0.0 0.00 0.18 0.18 99 999.1
20260510022837 10 133 0.0 0.0 0.00 0.18 0.18 99 999.1
20260510022336 11 132 0.0 0.0 0.00 0.18 0.18 99 998.9
20260510021834 10 146 0.0 0.0 0.00 0.18 0.18 99 999.1
20260510021333 10 145 0.0 0.0 0.00 0.18 0.18 99 999.0
20260510020829 10 145 0.0 0.0 0.00 0.18 0.18 99 999.0
20260510020329 11 145 0.0 0.0 0.00 0.18 0.18 99 998.9
20260510015825 11 144 0.0 0.0 0.00 0.18 0.18 99 999.0
20260510015321 11 145 0.0 0.0 0.00 0.18 0.18 99 999.0
20260510014816 11 145 0.0 0.0 0.00 0.18 0.18 99 998.8
20260510014314 11 145 0.0 0.0 0.00 0.18 0.18 99 998.9
20260510013809 11 146 0.0 0.0 0.00 0.18 0.18 99 998.8
20260510013306 11 144 0.0 0.0 0.00 0.18 0.18 99 998.8
20260510012800 11 146 0.0 0.0 0.00 0.18 0.18 99 998.8
20260510012255 11 146 0.0 0.0 0.00 0.18 0.18 99 999.0
20260510011754 11 132 0.0 0.0 0.00 0.18 0.18 99 998.8
20260510011250 11 133 0.0 0.0 0.00 0.18 0.18 99 999.0
20260510010748 11 132 0.0 0.0 0.00 0.18 0.18 99 998.7
20260510010244 11 132 0.0 0.0 0.00 0.18 0.18 99 998.7
20260510005741 11 132 0.0 0.0 0.00 0.18 0.18 99 998.8
20260510005237 11 131 0.0 0.0 0.00 0.18 0.18 99 998.5
20260510004735 11 132 0.0 0.0 0.00 0.18 0.18 99 998.4
20260510004233 11 132 0.0 0.0 0.00 0.18 0.18 98 998.4
20260510003730 11 131 0.0 0.0 0.00 0.18 0.18 98 998.2
20260510003226 12 131 0.0 0.0 0.00 0.18 0.18 98 998.6
20260510002725 12 131 0.0 0.0 0.00 0.18 0.18 98 998.6
20260510002223 12 132 0.0 0.0 0.00 0.18 0.18 98 998.3
20260510001719 12 133 0.0 0.0 0.00 0.18 0.18 98 998.5
20260510001218 12 132 0.0 0.0 0.00 0.18 0.18 98 998.5
20260510000713 12 132 0.0 0.0 0.00 0.18 0.18 97 998.4
20260510000211 12 132 0.0 0.0 0.00 0.18 0.18 97 998.3
20260509235707 12 132 0.0 0.0 0.00 0.18 0.18 97 998.6
20260509235204 12 133 0.0 0.0 0.00 0.18 0.18 97 998.3
20260509234700 12 132 0.0 0.0 0.00 0.18 0.18 96 998.4
20260509234157 12 132 0.0 0.0 0.00 0.18 0.18 96 998.4
20260509233655 12 133 0.0 0.0 0.00 0.18 0.18 96 998.3
20260509233152 13 133 0.0 0.0 0.00 0.18 0.18 95 998.3
20260509232648 13 132 0.0 0.0 0.00 0.18 0.18 94 998.4
20260509232145 13 132 0.0 0.0 0.00 0.18 0.18 94 998.5
20260509231642 13 144 0.0 0.0 0.00 0.18 0.18 93 998.4
20260509231139 13 147 0.0 0.0 0.00 0.18 0.18 91 998.2
20260509230636 13 147 0.0 0.0 0.00 0.18 0.18 90 998.3
20260509230133 14 147 0.0 0.0 0.00 0.18 0.18 90 998.3
20260509225629 14 160 0.0 0.0 0.00 0.18 0.18 90 998.0
20260509225125 13 159 0.0 0.0 0.00 0.18 0.18 90 998.3
20260509224620 13 150 0.0 0.0 0.00 0.18 0.18 90 998.4
20260509224117 13 150 0.0 0.0 0.00 0.18 0.18 91 998.4
20260509223614 13 160 0.0 0.0 0.00 0.18 0.18 92 998.3
20260509223112 13 160 0.0 0.0 0.00 0.18 0.18 94 998.2
20260509222608 13 162 0.0 0.0 0.00 0.18 0.18 94 998.6
20260509222104 13 159 0.0 0.0 0.00 0.18 0.18 94 998.4
20260509221559 13 160 1.6 1.6 0.00 0.18 0.18 95 998.5
20260509221056 13 150 1.6 1.6 0.00 0.18 0.18 95 998.6
20260509220552 13 148 0.0 0.0 0.00 0.18 0.18 95 998.6
20260509220048 13 162 0.0 0.0 0.00 0.18 0.18 95 998.4
20260509215543 13 150 1.6 3.2 0.00 0.18 0.18 95 998.4
20260509215041 12 162 0.0 0.0 0.00 0.18 0.18 96 998.4
20260509214538 13 148 0.0 0.0 0.00 0.18 0.18 96 998.4
20260509214035 12 149 0.0 0.0 0.00 0.18 0.18 96 998.3
20260509213531 12 146 0.0 0.0 0.00 0.18 0.18 96 998.4
20260509213028 12 148 0.0 0.0 0.00 0.18 0.18 96 998.7
20260509212525 12 149 0.0 0.0 0.00 0.18 0.18 96 998.6
20260509212022 12 143 0.0 0.0 0.00 0.18 0.18 95 998.6
20260509211518 12 148 0.0 0.0 0.00 0.18 0.18 96 998.6
20260509211015 12 148 0.0 0.0 0.00 0.18 0.18 96 998.7
20260509210511 13 134 1.6 1.6 0.00 0.18 0.18 96 998.8
20260509210008 13 132 0.0 0.0 0.18 0.18 0.18 96 998.4
20260509205502 12 135 0.0 0.0 0.18 0.18 0.18 96 998.6